星链-2243 (STARLINK-2243 )

导读 | 豆包AI

STARLINK-2243是美国SpaceX公司星链星座的一员,于2021年3月24日发射。星链项目旨在构建全球低轨卫星互联网,为地面基础设施覆盖不足的偏远地区、海洋空域提供高速低延迟网络接入。 作为星链组网卫星,它运行在近地轨道,承担星座组网通信任务,助力星链持续扩展全球服务覆盖能力,也推动了全球卫星互联网的发展。不过星链大规模部署也引发了太空碎片、天文观测干扰等争议。

基本信息
目录编号:
48013
目录名称:
STARLINK-2243
国际标识:
2021-024AN
轨道中心:
EARTH
卫星名称:
星链-2243
卫星全名:
星链-2243 (STARLINK-2243 )
卫星状态:
已陨落 最后检测时间 2025-02-09
发射日期:
2021-03-24 UTC
国别 :
美国 (US)
星等 :
--
轨道信息
数据来源 国际轨道数据
星历时间: 2025-02-09T18:45:30+0800
轨道信息已过期398天
半长轴: 6531.591km
偏心率: 0.0005956
轨道倾角: 53.021°
近地点辐角 278.917°
升交点赤经 234.067°
平近点角 184.091°
近地点: 149.565km
远地点: 157.347km
周期: 87.556分钟
每日圈数: 16.446533
详细信息
固有亮度:
5
最大亮度:
2.5
卫星平台:
Starlink V1.0
覆盖范围:
全球
运营商:
太空探索技术公司
运营商所在国:
美国
制造商(研发单位):
太空探索技术公司
制造商所在国:
美国
使用方式:
暂无
卫星简介
星链(Starlink)计划是由太空探索技术公司(SpaceX)提出的一个巨型低轨卫星互联网星座项目,计划在2019年至2024年间在太空搭建由约1.2万颗卫星组成的“星链”网络,其中1584颗将部署在地球上空550千米处的近地轨道,并从2020年开始工作。该卫星仍在工作。